Regional Weather Roundup
Issued by NWS

Home | Current Version | Previous Version | Graphics & Text | Print | Product List | Glossary On
Versions: 1 2 3 4 5 6 7 8 9 10 11 12 13 14 15 16 17 18 19 20 21 22 23 24 25 26 27 28 29 30 31 32 33 34 35 36 37 38 39 40 41 42 43 44 45 46 47 48 49 50
000
ASUS45 KPSR 010500
RWRAZ

PRELIMINARY ARIZONA REGIONAL HOURLY WEATHER ROUNDUP
NATIONAL WEATHER SERVICE PHOENIX AZ
1000 PM MST SUN AUG 31 2014

NOTE: FAIR INDICATES FEW OR NO CLOUDS BELOW 12,000 FEET WITH NO
SIGNIFICANT WEATHER AND/OR OBSTRUCTIONS TO VISIBILITY.

AZZ001>003-036-010600-
NORTHWEST ARIZONA

CITY           SKY/WX    TMP DP  RH WIND       PRES   REMARKS
KINGMAN        CLEAR     78  36  21 S8        29.92R
$$

AZZ004>008-015-016-018-010600-
NORTH CENTRAL ARIZONA

CITY           SKY/WX    TMP DP  RH WIND       PRES   REMARKS
GRAND CANYON     N/A    N/A N/A N/A MISG        N/A
WILLIAMS       CLEAR     66  39  37 SW8       30.25R
PRESCOTT       CLEAR     68  46  45 S6        30.08R
FLAGSTAFF      CLEAR     55  42  61 CALM      30.24R
PAYSON         CLEAR     70  41  35 CALM      30.12R
PAGE           CLEAR     85  28  12 W5        29.93R
$$

AZZ009>014-017-010600-
NORTHEAST ARIZONA

CITY           SKY/WX    TMP DP  RH WIND       PRES   REMARKS
WINSLOW        NOT AVBL
SAINT JOHNS    CLEAR     70  40  33 SW12      30.12R
WINDOW ROCK    CLEAR     64  35  34 SW6       30.18R
$$

AZZ023-010600-
GREATER PHOENIX AREA

CITY           SKY/WX    TMP DP  RH WIND       PRES   REMARKS
PHOENIX        CLEAR     96  41  15 SW7       29.74R
DEER VALLEY    CLEAR     93  43  17 SW6       29.77R
SCOTTSDALE     CLEAR     94  44  17 W3        29.80R
MESA-GATEWAY   CLEAR     93  41  16 W5        29.80R
$$

AZZ027-028-010600-
SOUTHWEST MARICOPA COUNTY AND PINAL COUNTY

CITY           SKY/WX    TMP DP  RH WIND       PRES   REMARKS
CASA GRANDE    CLEAR     91  43  18 SW9       29.81S
$$

AZZ503-504-507>509-010600-
SOUTHEAST ARIZONA

CITY           SKY/WX    TMP DP  RH WIND       PRES   REMARKS
TUCSON         CLEAR     87  43  21 W7        29.93R
NOGALES        CLEAR     71  52  50 NE5       30.03R
SIERRA VISTA   CLEAR     76  47  35 W8        30.09S
SAFFORD        CLEAR     82  38  20 NW8       29.92R
$$

AZZ020-021-025-026-031-010600-
SOUTHWEST ARIZONA

CITY           SKY/WX    TMP DP  RH WIND       PRES   REMARKS
YUMA           NOT AVBL
$$

CAZ031-033-041-043-047-048-061-010600-
SOUTHERN CALIFORNIA

CITY           SKY/WX    TMP DP  RH WIND       PRES   REMARKS
DOWNTOWN L.A.  PTCLDY    74  66  76 VRB3      29.80R
L.A. AIRPORT   PTCLDY    73  66  78 E3        29.81R
SAN DIEGO      MOCLDY    70  65  84 S7        29.84R
BURBANK        CLEAR     75  64  68 SE6       29.82R
ONTARIO        PTCLDY    76  62  62 W9        29.82R
RIVERSIDE      CLEAR     76  63  64 W5        29.82R
PALM SPRINGS   CLEAR     95  43  16 NW17      29.68R
IMPERIAL       CLEAR     87  49  26 W9        29.65R
BLYTHE         CLEAR     96  56  26 S20       29.67R
$$

NVZ020-UTZ003-010600-
SOUTHERN NEVADA-UTAH

CITY           SKY/WX    TMP DP  RH WIND       PRES   REMARKS
LAS VEGAS      NOT AVBL
SALT LAKE CITY CLEAR     62  37  39 S5        29.98F
$$

NMZ009-TXZ055-010600-
NEW MEXICO-WEST TEXAS

CITY           SKY/WX    TMP DP  RH WIND       PRES   REMARKS
ALBUQUERQUE    CLEAR     82  34  17 W15       30.03R
EL PASO        CLEAR     89  41  18 W10       29.97R
$$


........................KEY........................
SKY/WX - SKY CONDITION/WEATHER
TMP    - TEMPERATURE IN FAHRENHEIT
DP     - DEW POINT IN FAHRENHEIT
RH     - RELATIVE HUMIDITY IN PERCENT
WIND   - DIRECTION AND SPEED IN MILES PER HOUR (MPH)
VRB    - VARIABLE WIND DIRECTION
PRES   - MEAN SEA LEVEL PRESSURE IN INCHES OF MERCURY
         F - FALLING PRESSURE   R - RISING PRESSURE
         S - STEADY PRESSURE
VSB    - VISIBILITY IN MILES
HX     - HEAT INDEX IN FAHRENHEIT
WCI    - WIND CHILL INDEX IN FAHRENHEIT
TC     - TEMPERATURE IN CELSIUS WHICH IS ALSO KNOWN AS
         TEMPERATURE IN CENTIGRADE
AFB    - AIR FORCE BASE
         LUKE AFB IS LUKE AIR FORCE BASE
         DAVIS-MONTHAN IS DAVIS-MONTHAN AIR FORCE BASE
NAS    - NAVAL AIR STATION
         EL CENTRO NAS IS EL CENTRO NAVAL AIR STATION
N/A    - NOT AVAILABLE



USA.gov is the U.S. government's official web portal to all federal, state and local government web resources and services.